Regional Weather Roundup
Issued by NWS Charleston, SC

Current Version | Previous Version | Graphics & Text | Print | Product List | Glossary On
Versions: 1 2 3 4 5 6 7 8 9 10 11 12 13 14 15 16 17 18 19 20 21 22 23 24 25 26 27 28 29 30 31 32 33 34 35 36 37 38 39 40 41 42 43 44 45 46 47 48 49 50
000
ASUS42 KCHS 041512
RWRCHS

REGIONAL WEATHER ROUNDUP
NATIONAL WEATHER SERVICE CHARLESTON SC
1100 AM EDT TUE AUG 04 2015

NOTE: "FAIR" INDICATES FEW OR NO CLOUDS BELOW 12,000 FEET WITH NO
SIGNIFICANT WEATHER AND/OR OBSTRUCTIONS TO VISIBILITY.

NOT ALL STATIONS ARE QUALITY CONTROLLED BY THE NATIONAL
WEATHER SERVICE. USE DATA WITH CAUTION...ESPECIALLY
DEWPOINT OBSERVATIONS.

SCZ027-030-031-034>040-042>050-041600-
...SOUTHEAST SOUTH CAROLINA...

CITY           SKY/WX    TMP DP  RH WIND       PRES   REMARKS
N CHARLESTON   PTSUNNY   79  74  84 NW8       29.97R
WATERFRONT PRK   N/A     80  76  87 NW7       29.93S
MOUNT PLEASANT PTSUNNY   81  75  83 W8        29.96R
JOHNS ISLAND   CLOUDY    82  77  83 W7        29.97R HX  91
PINOPOLIS      NOT AVBL
MONCKS CORNER  CLOUDY    79  75  89 CALM      29.97R
SUMMERVILLE    CLOUDY    81  77  89 W6        29.98R
BEAUFORT MCAS  PTSUNNY   83  75  77 NW8       29.99R HX  90
BEAUFORT ARPT  PTSUNNY   82  77  83 NW8       29.98R HX  91
HILTON HEAD IS PTSUNNY   82  77  83 MISG      30.00R HX  91
WALTERBORO     CLOUDY    84  77  79 NW6       29.99R HX  94
ALLENDALE      FAIR      84  75  74 N6G13     29.99S HX  92

...SOUTHERN MIDLANDS AND PEE DEE...

CITY           SKY/WX    TMP DP  RH WIND       PRES   REMARKS
GEORGETOWN     NOT AVBL
KINGSTREE      NOT AVBL
ORANGEBURG     SUNNY     85  72  65 NW9       29.99S HX  91
BARNWELL       FAIR      84  73  70 N7        30.01S HX  91
AIKEN          FAIR      81  68  65 CALM      30.05S
MANNING        HVY RAIN  79  73  83 NW8       29.97S
COLUMBIA       MOSUNNY   87  70  56 N9        29.99S HX  92
SUMTER         MOSUNNY   84  73  67 N8        29.97S HX  90
FLORENCE       MOSUNNY   86  73  65 NE12      29.98R HX  93
MYRTLE BEACH   PTSUNNY   81  73  78 MISG      29.94F
N MYRTLE BEACH LGT RAIN  78  75  90 SE15G25   29.93F FOG

$$

GAZ063-065-086>088-099>101-113>116-118-119-134>141-150-041600-
...SOUTHEAST GEORGIA...

CITY           SKY/WX    TMP DP  RH WIND       PRES   REMARKS
SAVANNAH ARPT  PTSUNNY   84  74  71 N7        30.00R HX  91
HUNTER AAF     PTSUNNY   84  78  83 NW7       29.98R HX  94
FORT STEWART   MOSUNNY   84  75  74 W9        29.98R HX  92
STATESBORO     MOSUNNY   83  82  95 N6        30.01S HX  98
SYLVANIA       MOSUNNY   85  78  79 N7        30.02S HX  95
CLAXTON        NOT AVBL

...CSRA...CENTRAL AND FAR SOUTHEAST GEORGIA...

CITY           SKY/WX    TMP DP  RH WIND       PRES   REMARKS
THOMSON        SUNNY     88  76  69 CALM      30.06S HX  99
AUGUSTA-BUSH   MOSUNNY   85  73  67 CALM      30.01R HX  91
AUGUSTA-DANIEL SUNNY     85  72  65 S5        30.03R HX  91
SWAINSBORO     FAIR      84  79  84 CALM      30.03S HX  96
VIDALIA        MOSUNNY   82  75  78 NE7       30.03R
EASTMAN        FAIR      90  76  63 CALM      30.03S HX 101
HAZLEHURST     FAIR      86  78  77 CALM      30.01R HX  99
ALMA           SUNNY     87  78  74 VRB3      30.01R HX 100
WAYCROSS       MOSUNNY   91  81  72 N7        30.01R HX 109
JESUP          FAIR      88  79  74 NW9       30.01R HX 102
BAXLEY         FAIR      86  77  74 NE3       30.01R HX  97
BRUNSWICK      PTSUNNY   81  75  83 NW5       30.01R
SAINT SIMONS   PTSUNNY   82  75  79 NW7       30.00R

$$

SCZ027-028-034-036>038-045-046-048>050-GAZ119-141-041600-
...LAKE AND SUPPLEMENTAL COASTAL OBSERVATIONS...

STATION/POSITION TIME  TEMP    WIND        PRES    WAVE   SWELL
                       AIR SEA DIR/SP/G            HT/PER HT/PER/DIR
                 (UTC) (F)     (DEG/KT/KT) (MB)    (FT/S) (FT/S/D)
UPR LAKE MARION  NOT AVBL
WINYAH BAY       1345   80     190/  5     1012.0
LAKE MURRAY      1400   82      CALM  /  5 1015.2S
ACE BASIN NERRS  NOT AVBL
FORT PULASKI     1400   79 84  310/ 10/ 12 1015.7R
SAPELO ISLAND    1400   79     310/  7     1015.0S

$$

ANZ835-935-AMZ111-154-330-350-352-354-370-450-454-472-041600-
...C-MAN AND BUOY OBSERVATIONS...

STATION/POSITION TIME  TEMP    WIND        PRES    WAVE   SWELL
                       AIR SEA DIR/SP/G            HT/PER HT/PER/DIR
                 (UTC) (F)     (DEG/KT/KT) (MB)    (FT/S) (FT/S/D)
BUOY 41004       1450   81 83  250/ 14/ 16 1013.8R   6/ 8   3/ 8
BUOY 41008       1450   79 83  310/ 10/ 12 1015.6R   4/ 6   3/130/ 6
FOLLY BEACH CMAN 1400   78     290/  7/ 10 1014.3R
CAPERS NEARSHORE 1408   79     290/ 12/ 17 1014.0R
FRIPP NEARSHORE  1400   79     320/ 10/ 12 1014.6R


STATION/POSITION TIME  TEMP    WIND        PRES    WAVE   SWELL
                       AIR SEA DIR/SP/G            HT/PER HT/PER/DIR
                 (UTC) (F)     (DEG/KT/KT) (MB)    (FT/S) (FT/S/D)
5E ST. MARYS GA  1421      81                N/A     3/ 6
FRYING PAN BUOY  1450   80 82  160/ 25/ 31 1015.1F   7/ 8   2/170/11
BUOY 41025       1450   81 84  190/ 19/ 23 1017.6F   4/ 7   2/170/ 7
CAPE LOOKOUT NC  1400   82     190/ 16/ 19 1016.6R
BUOY 41002       1450   83 81  190/ 14/ 16 1019.1F   5/ 6   2/ 90/10
BUOY 41010       1420   84 84  190/ 12/ 14 1018.2R
ST AUGUSTINE FL  1500   80 77  220/  9/ 11 1017.8R


$$



USA.gov is the U.S. government's official web portal to all federal, state and local government web resources and services.